"Pseudo-MPEC" for P10UYyH

Created 2019 Dec 7 12:07:21 UT using Find_Orb

Click here for an explanation of pseudo-MPECs

 
 Astrometry: 
     P10UYyH  C2019 11 28\CO@dTU/BnK[Astrometry$O[Y^8w%H3lUw,U\e-rb\8LjG[2;,nF52
     P10UYyH  C2019 11 28@62UoqGlPoYB$VOYl:@?WV1)FYeYNK'Ham#1$Wns77QGfdnZ*37:F52
     P10UYyH  C2019 11 28xuaW`t,e!T'H28g6o[d,LoT8ZHM5Y39tESH+?I_FKK^8SNZ:OHmcF52
     P10UYyH  C2019 11 29J@(_^;LRiq+7J:JeA.X7,q0`!XSd(MFAf;G*sIAuN5kx!gaY$W?vF51
     P10UYyH  C2019 11 29g%QE3;':WIxB7r*M=(N*Ca/_redacted;A_6@L+Gg!#GYMOofA`9F51
     P10UYyH  C2019 11 29_BgifNR@.kbH'\tg^ahac!4cP^e=%%VdGx.3`.click5RJ73,1TjF51
     P10UYyH |C2019 12 07MCR6xfyO$F*CHjVX[q@J#ja6vrkAyhs5f9ho`;)rJNL[`here-RZ807
     P10UYyH |C2019 12 07WUJEkjAD2n4y.Hc(F6,NAforhJsH[(rNMErni+c#^KZ,Qw$3C:sL807
     P10UYyH |C2019 12 07W;:[4cq[py.explanationoqW9@p:EP!vM%cK@\wQw7ff\]6S\xH807

Station data:
(807) Cerro Tololo Observatory, La Serena  (S30.169136 W70.805900)  Chile.
(F51) Pan-STARRS 1, Haleakala  (N20.707235 W156.255910)  US/Hawaii.
   Observers N. Primak, A. Schultz, S. Watters, J. Thiel, T. Goggia. Measurer
   PS1 Science Consortium. 1.8-m Ritchey-Chrétien + CCD.
(F52) Pan-STARRS 2, Haleakala  (N20.707384 W156.255910)  US/Hawaii. 1.8-m
   Ritchey-Chrétien + CCD.

Orbital elements:  P10UYyH
   Perihelion 2020 Jan 23.943867 +/- 7.01 TT = 22:39:10 (JD 2458872.443867)
Epoch 2019 Dec  7.0 TT = JDT 2458824.5                        AutoNEOCP
M 351.84943993 +/- 1.1              (J2000 ecliptic)
n   0.17000214 +/- 0.00551          Peri.  343.39872 +/- 1.8
a   3.22725378 +/- 0.0697           Node    39.00190 +/- 0.18
e   0.1951129 +/- 0.0154            Incl.   35.96486 +/- 0.12
P   5.80                   H 16.9   G  0.15   U  9.3  
q 2.59757477 +/- 0.0104    Q 3.85693279 +/- 0.138
From 9 observations 2019 Nov. 28-Dec. 7; mean residual 0".09
Residuals in arcseconds: 
191128 F52  .05-  .02+    191129 F51  .21-  .05+    191207 807  .06+  .00     
191128 F52  .05+  .07+    191129 F51  .03+  .07-    191207 807  .19-  .03+    
191128 F52  .01+  .09-    191129 F51  .17+  .02+    191207 807  .13+  .03-    

Ephemerides (geocentric):
Date (UTC) HH   RA              Dec         delta   r     elong  mag " sig PA
---- -- -- --  -------------   -----------  ------ ------ -----  --- ---- ---
2019 12 07 12  00 01 41.395   -20 16 14.83  2.2995 2.6072  96.8 21.8 .159  98
2019 12 07 13  00 01 42.035   -20 15 27.39  2.3000 2.6071  96.8 21.8 .175  98
2019 12 07 14  00 01 42.678   -20 14 39.94  2.3005 2.6071  96.8 21.8 .190  97
2019 12 07 15  00 01 43.323   -20 13 52.49  2.3010 2.6071  96.7 21.8 .206  97
2019 12 07 16  00 01 43.971   -20 13 05.05  2.3015 2.6071  96.7 21.8 .221  97
2019 12 07 17  00 01 44.621   -20 12 17.60  2.3020 2.6071  96.7 21.8 .237  96
2019 12 07 18  00 01 45.273   -20 11 30.16  2.3025 2.6071  96.6 21.8 .253  96
2019 12 07 19  00 01 45.928   -20 10 42.71  2.3030 2.6070  96.6 21.8 .269  96
2019 12 07 20  00 01 46.585   -20 09 55.27  2.3035 2.6070  96.6 21.8 .285  96
2019 12 07 21  00 01 47.245   -20 09 07.82  2.3040 2.6070  96.5 21.8 .302  96
2019 12 07 22  00 01 47.907   -20 08 20.38  2.3045 2.6070  96.5 21.8 .318  96
2019 12 07 23  00 01 48.572   -20 07 32.93  2.3050 2.6070  96.5 21.8 .335  96
2019 12 08 00  00 01 49.239   -20 06 45.49  2.3055 2.6070  96.5 21.9 .351  95
2019 12 08 01  00 01 49.908   -20 05 58.05  2.3060 2.6069  96.4 21.9 .368  95
2019 12 08 02  00 01 50.580   -20 05 10.61  2.3065 2.6069  96.4 21.9 .385  95
2019 12 08 03  00 01 51.254   -20 04 23.16  2.3070 2.6069  96.4 21.9 .402  95
2019 12 08 04  00 01 51.931   -20 03 35.72  2.3075 2.6069  96.3 21.9 .419  95
2019 12 08 05  00 01 52.610   -20 02 48.28  2.3080 2.6069  96.3 21.9 .437  95
2019 12 08 06  00 01 53.291   -20 02 00.84  2.3085 2.6069  96.3 21.9 .454  95
2019 12 08 07  00 01 53.975   -20 01 13.40  2.3090 2.6068  96.2 21.9 .472  95
2019 12 08 08  00 01 54.661   -20 00 25.96  2.3095 2.6068  96.2 21.9 .490  95
2019 12 08 09  00 01 55.349   -19 59 38.52  2.3100 2.6068  96.2 21.9 .507  95
2019 12 08 10  00 01 56.040   -19 58 51.08  2.3105 2.6068  96.1 21.9 .525  95
2019 12 08 11  00 01 56.734   -19 58 03.65  2.3110 2.6068  96.1 21.9 .543  95
2019 12 08 12  00 01 57.429   -19 57 16.21  2.3115 2.6068  96.1 21.9 .562  95
2019 12 08 13  00 01 58.127   -19 56 28.77  2.3120 2.6067  96.0 21.9 .580  95
2019 12 08 14  00 01 58.828   -19 55 41.34  2.3125 2.6067  96.0 21.9 .598  95
2019 12 08 15  00 01 59.531   -19 54 53.90  2.3130 2.6067  96.0 21.9 .617  95
2019 12 08 16  00 02 00.236   -19 54 06.46  2.3135 2.6067  95.9 21.9 .636  95
2019 12 08 17  00 02 00.943   -19 53 19.03  2.3140 2.6067  95.9 21.9 .654  94
2019 12 08 18  00 02 01.653   -19 52 31.60  2.3145 2.6067  95.9 21.9 .673  94
2019 12 08 19  00 02 02.366   -19 51 44.16  2.3151 2.6066  95.9 21.9 .692  94
2019 12 08 20  00 02 03.080   -19 50 56.73  2.3156 2.6066  95.8 21.9 .711  94
2019 12 08 21  00 02 03.798   -19 50 09.30  2.3161 2.6066  95.8 21.9 .731  94
2019 12 08 22  00 02 04.517   -19 49 21.87  2.3166 2.6066  95.8 21.9 .750  94
2019 12 08 23  00 02 05.239   -19 48 34.44  2.3171 2.6066  95.7 21.9 .770  94
2019 12 09 00  00 02 05.963   -19 47 47.01  2.3176 2.6066  95.7 21.9 .789  94
2019 12 09 01  00 02 06.690   -19 46 59.58  2.3181 2.6066  95.7 21.9 .809  94
2019 12 09 02  00 02 07.418   -19 46 12.15  2.3186 2.6065  95.6 21.9 .829  94
2019 12 09 03  00 02 08.150   -19 45 24.72  2.3191 2.6065  95.6 21.9 .849  94
2019 12 09 04  00 02 08.883   -19 44 37.30  2.3196 2.6065  95.6 21.9 .869  94
2019 12 09 05  00 02 09.619   -19 43 49.87  2.3201 2.6065  95.5 21.9 .889  94
2019 12 09 06  00 02 10.358   -19 43 02.44  2.3206 2.6065  95.5 21.9 .910  94
2019 12 09 07  00 02 11.098   -19 42 15.02  2.3211 2.6065  95.5 21.9 .930  94
2019 12 09 08  00 02 11.841   -19 41 27.60  2.3216 2.6064  95.4 21.9 .951  94
2019 12 09 09  00 02 12.587   -19 40 40.17  2.3221 2.6064  95.4 21.9 .972  94
2019 12 09 10  00 02 13.335   -19 39 52.75  2.3226 2.6064  95.4 21.9 0.99  94
2019 12 09 11  00 02 14.085   -19 39 05.33  2.3231 2.6064  95.3 21.9 1.01  94